Location: Duac?
(36.9744°N, 30.6500°E)
Time: 15:44:35
(UTC+00:00)

Cosmos 2360 Rocket - Pass Details

Date: 05 August 2024
Orbit: 834 x 843 km, 71.0° (Epoch: 11 September)

Event Time Altitude Azimuth Distance (km) Brightness Sun altitude
Exits shadow 22:49:44 29° 61° (ENE) 1,511 3.8 -35.3°
Drops below altitude 10° 22:52:50 10° 38° (NE) 2,465 5.3 -35.1°
Sets 22:55:24 0° 31° (NNE) 3,403 6.3 -35.0°
